Regional Weather Roundup
Issued by NWS

Home | Current Version | Previous Version | Graphics & Text | Print | Product List | Glossary On
Versions: 1 2 3 4 5 6 7 8 9 10 11 12 13 14 15 16 17 18 19 20 21 22 23 24 25 26 27 28 29 30 31 32 33 34 35 36 37 38 39 40 41 42 43 44 45 46 47 48 49 50
340
ASUS43 KTOP 040708
RWRKS

WEATHER ROUNDUP FOR KANSAS
NATIONAL WEATHER SERVICE GOODLAND KS
200 AM CDT WED MAY 04 2016

NOTE:  "FAIR" INDICATES FEW OR NO CLOUDS BELOW 12,000 FEET WITH NO
SIGNIFICANT WEATHER AND/OR OBSTRUCTIONS TO VISIBILITY.

KSZ001>006-013>018-027>032-041>047-040800-
NORTHWEST KANSAS

CITY           SKY/WX    TMP DP  RH WIND       PRES   REMARKS
GOODLAND       CLEAR     43  35  73 W8        30.14R
HAYS           CLEAR     48  36  61 W6        30.05S
HILL CITY      CLEAR     48  42  80 W10       30.07R
RUSSELL        CLEAR     49  44  83 W8        30.02S
$$

KSZ061>065-074>080-084>089-040800-
SOUTHWEST KANSAS

CITY           SKY/WX    TMP DP  RH WIND       PRES   REMARKS
DODGE CITY     CLEAR     47  40  76 W8        30.09F
ELKHART          N/A     48  37  65 W7          N/A
GARDEN CITY    CLEAR     42  39  89 W9        30.11R
GREAT BEND     CLEAR     48  39  71 W8        30.04S
LIBERAL        CLEAR     45  36  70 W7        30.14S
PRATT          CLEAR     45  41  86 W8        30.05S
$$

KSZ066>073-081>083-090>101-040800-
SOUTHEAST KANSAS

CITY           SKY/WX    TMP DP  RH WIND       PRES   REMARKS
CHANUTE        CLEAR     55  46  71 W7        29.96F
COFFEYVILLE    PTCLDY    54  48  80 S5        29.98S
HUTCHINSON     CLEAR     50  45  83 NW3       30.02F
MEDICINE LODGE   N/A     47  44  90 NW3       30.04F
NEWTON         CLEAR     52  41  66 W7        30.02F
PARSONS        MOCLDY    54  49  83 SW3       29.98S
WICHITA INTL   CLEAR     54  44  69 NW9       30.01S
WICHITA JABRA  CLEAR     54  45  71 W9        30.00F
WICHITA MCCONL CLEAR     56  45  67 NW8       30.00F
WINFIELD       PTCLDY    51  45  79 W3        30.36F
$$

KSZ007>012-019>026-033>040-048>060-102>105-040800-
NORTHEAST KANSAS

CITY           SKY/WX    TMP DP  RH WIND       PRES   REMARKS
CONCORDIA      CLEAR     53  44  71 W10       29.97S
EMPORIA        CLEAR     54  45  71 W7        29.96F
LAWRENCE       CLEAR     47  45  93 NW5       29.90F
MANHATTAN      CLEAR     52  45  77 SW6       29.94F
MARYSVILLE     CLEAR     55  43  62 W5        29.92F
OLATHE IND     PTCLDY    53  46  77 SW8       29.91F
OLATHE EXE     CLEAR     55  44  66 SW6       29.90F
SALINA         CLEAR     55  45  68 SW3       29.99S
TOPEKA BILLARD CLEAR     51  47  86 W3        29.91F
TOPEKA FORBES  CLEAR     53  45  74 W9        29.91F
$$




USA.gov is the U.S. government's official web portal to all federal, state and local government web resources and services.